Wind_Speed
2 1 1 1 1 3 2 3 1 2 2 1 3 1 4 5 2 3 5 3 1 3 4 2 2 5 5 5 8 6 6 3 2 4 3 3 16 24 20 21 30 30 27 23 19 17 15 18 18 19 20 20 20 20 21 22 22 22 22 22 22 22 23 23 22 21 21 22 21 22 23 22 22 21 21 20 19 17 17 16 16 16 17 17 17 16 15 14 14 14 14 14 13 14 15 15 17
1 1 2 2 2 3 1 3 2 2 3 2 4 3 4 4 2 5 7 3 3 2 1 5 8 9 8 8 8 5 8 7 3 3 3 13 21 19 20 26 32 30 27 24 22 20 17 18 17 18 19 19 19 20 21 21 21 21 21 22 21 21 22 22 21 21 20 21 21 22 22 22 21 20 20 19 18 17 16 17 16 17 17 17 16 16 15 14 13 13 13 13 13 14 15 16 17
2 3 1 2 3 3 1 3 2 1 3 3 5 3 4 3 4 6 7 5 6 6 6 7 7 5 4 5 4 3 3 4 6 4 6 16 14 14 24 28 30 28 26 24 23 22 21 20 18 18 18 18 18 19 21 21 21 21 21 21 21 21 21 21 20 20 20 20 21 21 21 21 20 19 18 18 17 16 16 17 17 17 17 16 15 15 14 13 13 12 12 12 12 13 15 16 17
2 2 1 2 2 3 3 3 2 4 2 4 3 5 4 4 5 3 6 3 8 6 4 3 4 3 3 7 3 4 4 4 6 4 6 11 11 20 28 28 28 26 24 23 23 24 22 21 20 19 18 18 17 18 20 21 21 21 21 21 21 21 21 20 19 19 19 19 19 20 20 20 19 18 17 17 16 15 15 16 17 16 16 15 15 14 13 13 12 12 11 11 12 12 14 16 16
1 2 0 2 2 1 3 2 2 3 4 4 2 6 5 6 4 5 6 2 4 4 1 1 2 1 3 5 2 2 4 6 6 4 6 12 20 27 29 29 29 26 23 22 23 24 22 21 22 20 18 18 17 18 19 20 21 21 21 21 21 20 20 20 18 18 19 19 18 18 18 18 18 17 16 15 14 14 15 15 16 15 14 15 15 13 12 12 12 11 11 10 10 11 13 14 14
2 3 2 3 2 1 2 1 2 3 5 5 3 6 6 7 5 5 2 2 4 4 4 2 3 4 3 4 2 3 1 4 6 5 9 19 26 29 30 31 30 27 24 22 23 24 22 21 21 21 19 18 17 18 18 19 20 21 21 20 20 20 20 19 18 17 18 18 18 17 17 17 17 17 15 13 13 13 15 15 15 14 13 14 14 12 10 10 10 10 10 10 9 10 11 12 12
2 3 2 3 1 1 3 3 4 5 4 5 4 5 8 10 6 6 5 1 1 4 3 1 4 8 3 2 1 6 5 4 6 8 16 25 29 29 31 32 31 29 25 24 24 23 22 21 21 21 20 18 17 18 18 18 19 20 21 20 20 20 20 19 17 17 17 18 18 17 16 16 16 15 14 13 13 14 15 15 14 13 12 13 12 10 8 8 8 8 8 9 10 11 12 12 11
3 1 1 4 1 2 3 3 4 4 4 4 4 6 10 12 8 6 7 2 2 1 2 2 3 7 2 2 2 6 8 7 11 16 23 29 30 30 31 32 31 29 26 25 23 21 22 21 21 21 19 17 17 18 18 18 18 20 20 20 20 20 19 18 17 16 16 17 17 17 16 15 15 14 13 13 13 14 14 13 13 12 11 10 10 8 7 6 6 6 7 8 10 12 12 11 11
4 2 1 3 2 1 1 3 4 3 4 5 5 8 11 12 8 6 7 4 3 3 4 3 2 6 4 6 4 3 8 14 19 22 27 29 30 30 30 32 31 28 25 24 22 20 19 20 19 19 19 18 17 18 19 19 18 19 20 19 19 19 19 17 16 16 16 17 17 16 16 15 14 13 13 14 14 13 12 11 12 11 10 9 8 7 6 5 5 5 6 7 9 12 12 10 10
4 2 2 2 2 0 3 3 3 3 5 5 7 11 12 11 8 8 8 5 5 6 4 3 6 8 8 6 4 2 6 18 26 25 26 29 29 30 30 30 31 29 26 24 23 20 18 18 18 18 19 19 19 19 20 19 19 19 19 19 19 18 18 17 16 16 16 16 16 16 15 15 14 13 13 14 13 13 11 10 11 11 10 9 8 7 6 5 5 5 5 6 10 12 12 10 9
3 3 3 3 3 1 4 3 3 4 7 5 8 12 10 10 6 7 5 4 3 6 5 5 8 8 9 4 2 2 9 19 25 26 27 29 30 30 31 30 29 28 28 27 24 20 19 18 18 19 19 20 20 20 20 20 19 19 19 19 18 18 18 17 17 16 16 16 16 15 15 15 14 14 13 13 13 12 10 10 9 10 10 10 9 7 6 6 6 6 6 9 11 12 11 10 9
2 2 4 4 2 3 4 2 4 6 8 6 7 9 6 6 3 5 7 8 5 5 4 3 6 7 7 3 1 3 10 15 20 26 27 28 30 31 32 30 28 27 27 27 25 22 19 18 18 20 21 21 21 21 21 20 20 19 19 19 18 18 18 17 17 16 16 16 15 14 14 14 14 14 13 12 12 11 9 9 8 9 10 11 9 8 7 7 7 7 8 11 12 11 11 10 9
3 2 5 2 3 3 2 1 4 5 6 4 5 8 8 6 2 5 7 9 7 5 2 6 11 7 5 3 2 3 8 12 17 24 26 27 28 29 30 28 26 24 24 26 25 23 21 20 20 21 22 22 22 21 20 20 20 19 19 19 18 18 18 17 17 16 16 15 14 14 14 14 13 13 12 12 11 10 9 8 8 8 10 10 9 8 8 8 7 8 9 11 10 10 10 10 9
2 3 4 1 1 2 2 1 3 2 4 6 4 8 8 4 1 3 8 9 2 2 4 7 11 8 5 3 1 3 7 13 19 23 24 24 26 27 27 26 24 22 21 23 24 22 22 21 21 22 23 22 21 21 20 20 19 19 19 19 19 18 18 17 16 15 14 14 14 13 13 13 12 11 11 11 11 10 9 8 8 8 9 9 9 8 8 9 8 7 9 9 8 8 8 9 9
3 1 4 1 1 2 1 2 2 2 4 6 5 8 8 4 2 3 5 7 2 1 6 4 4 4 6 9 5 7 10 17 22 22 23 23 24 25 25 25 24 23 22 21 22 22 22 22 22 23 22 22 22 21 20 19 19 19 18 18 18 18 18 17 16 15 14 13 13 13 12 11 11 10 10 10 10 10 9 8 8 8 7 7 7 7 7 8 8 7 7 7 7 7 7 7 7
3 2 4 1 2 3 2 2 3 3 5 6 6 7 5 6 4 4 3 5 5 3 4 1 2 1 9 10 8 16 20 22 24 24 24 23 23 24 25 25 23 23 22 22 22 22 21 22 22 22 22 22 22 21 20 18 18 17 17 17 17 17 17 16 15 14 14 13 13 12 11 11 10 10 10 9 9 9 8 8 7 7 7 7 7 6 6 7 7 6 6 6 6 7 8 6 6
2 4 3 1 3 3 3 3 3 3 6 7 7 8 5 6 5 2 4 7 9 5 4 2 3 2 7 5 12 26 26 24 25 26 24 23 22 22 22 23 22 21 21 21 21 20 20 20 20 20 21 21 21 21 19 18 16 16 16 16 15 15 15 14 13 13 13 13 12 12 11 11 10 10 9 9 9 8 8 8 8 8 8 8 7 7 6 6 7 6 6 6 6 7 7 6 6
2 3 2 3 3 4 4 5 4 3 6 7 7 6 5 5 5 1 5 8 5 6 6 3 6 8 8 12 24 29 25 26 26 25 23 21 20 19 20 21 21 20 20 21 19 19 18 17 16 18 19 19 21 20 19 18 16 15 16 15 15 15 14 14 13 13 12 12 12 11 11 10 10 9 9 8 8 8 8 8 8 8 8 8 7 7 6 6 6 6 6 6 7 7 7 6 6
3 3 2 4 4 5 5 5 3 3 6 8 7 4 4 2 3 0 3 2 3 7 4 4 8 10 11 16 25 24 23 25 24 23 19 17 17 18 19 20 22 22 22 22 19 18 17 15 13 16 18 18 19 19 19 18 16 15 16 16 15 15 14 13 13 12 12 10 10 10 10 9 9 9 9 8 8 8 8 8 8 8 8 8 7 6 5 5 5 5 5 5 6 6 6 5 5
2 3 3 5 5 5 5 6 6 7 6 7 8 5 5 4 3 0 4 4 3 4 3 3 6 8 11 13 17 19 19 20 21 20 16 16 16 17 19 20 21 21 23 23 21 19 18 16 13 14 16 18 19 18 19 18 17 16 15 15 15 14 13 12 11 10 10 9 8 9 9 9 9 9 9 8 8 9 9 9 9 8 8 7 7 6 5 5 5 4 4 4 5 5 5 4 3
1 3 5 6 4 3 7 7 8 7 5 4 7 7 8 6 1 2 6 5 4 3 5 5 10 12 14 12 13 15 14 14 17 17 15 15 16 17 18 20 21 20 22 23 22 22 21 19 17 17 16 18 19 19 19 18 17 16 15 14 13 13 12 11 11 9 9 8 8 8 8 9 9 9 8 8 9 9 9 10 9 9 8 8 7 7 6 5 5 4 4 4 5 5 4 3 3
1 3 6 6 3 3 9 7 6 6 3 4 6 5 5 4 2 3 7 5 4 6 7 6 12 16 16 15 14 13 12 12 13 13 11 7 8 15 18 21 24 23 24 25 24 25 23 22 22 20 19 19 19 18 18 17 16 15 14 13 12 12 11 11 10 9 8 8 8 8 8 9 9 9 8 8 9 9 10 10 10 9 9 8 8 7 6 5 4 4 4 5 6 6 4 3 3
2 5 4 7 5 5 8 6 5 4 2 4 3 4 3 4 5 2 7 6 6 6 4 6 10 14 16 15 14 13 12 10 10 11 13 10 5 4 10 17 22 24 25 24 23 24 23 24 24 22 20 20 18 17 16 16 16 15 14 13 12 11 10 10 9 9 8 7 8 8 9 9 10 10 9 9 9 10 11 11 11 10 10 9 8 7 6 6 5 3 3 4 5 6 5 3 3
4 5 5 7 6 7 9 8 7 4 4 7 2 4 5 4 5 0 1 4 4 2 9 12 11 13 15 14 12 11 10 10 11 14 15 15 10 8 4 10 17 21 25 27 24 24 25 25 25 23 21 20 18 17 16 16 16 15 14 14 13 11 10 9 8 8 7 7 7 7 8 9 10 11 11 10 10 11 12 11 11 10 9 9 8 7 6 6 5 3 3 3 4 5 4 3 2
4 6 5 5 5 8 10 9 9 7 7 6 1 3 8 8 3 3 4 6 5 7 13 14 13 13 12 12 11 9 9 10 14 17 15 16 18 12 4 9 18 18 22 29 28 27 26 26 25 23 21 20 19 18 18 17 17 16 16 15 13 12 10 9 8 8 7 7 7 8 9 10 11 11 11 11 11 11 11 11 10 10 8 8 7 7 6 6 5 3 2 2 4 4 4 2 1
5 7 5 4 6 9 9 8 9 8 5 3 3 6 10 7 3 3 5 3 5 8 13 14 14 14 11 10 9 8 9 11 13 17 19 21 26 25 15 16 24 22 22 28 31 30 28 27 25 23 21 20 20 19 19 18 18 17 17 15 14 13 11 10 9 9 8 8 8 8 9 11 11 11 11 11 11 10 10 10 10 9 7 7 7 6 6 5 4 3 2 2 3 4 4 2 2
5 5 5 6 9 9 6 7 8 5 5 6 7 7 7 2 4 1 4 5 7 10 12 11 13 12 10 9 7 8 8 11 15 18 18 18 25 30 24 22 26 27 26 25 25 27 28 27 24 22 21 20 20 19 19 18 18 18 17 15 14 13 12 10 10 10 10 9 9 9 10 11 11 11 11 11 10 9 9 9 9 9 7 6 6 6 6 6 6 5 5 5 5 6 5 4 4
4 3 5 7 7 7 5 6 6 3 3 6 8 5 4 2 3 5 6 8 9 12 12 10 11 9 9 10 7 7 6 10 16 18 15 13 17 23 22 22 25 26 25 21 18 20 24 24 22 22 21 20 20 19 18 17 17 16 16 15 14 13 11 10 10 10 10 10 10 10 10 10 11 11 11 11 10 8 8 8 9 9 7 7 7 7 8 8 8 8 7 6 6 6 6 5 4
4 1 3 8 7 6 7 5 5 5 3 5 8 2 4 1 4 6 8 9 8 11 13 10 9 8 9 9 7 6 6 10 13 14 16 16 18 22 20 19 22 24 22 18 16 19 22 22 22 22 21 20 20 18 17 16 15 15 15 14 14 13 11 10 10 9 9 9 9 10 10 10 11 11 11 11 9 8 7 8 9 9 9 8 9 9 9 9 9 8 7 6 6 6 6 5 5
4 1 1 5 7 6 6 1 1 3 3 6 7 3 6 5 7 5 9 10 10 11 12 10 8 8 8 7 6 6 6 9 11 13 17 17 20 24 20 16 20 23 21 17 18 21 22 22 23 23 22 20 19 18 17 16 14 14 14 13 13 12 11 10 9 9 10 9 8 8 9 10 10 11 11 11 10 8 8 8 10 11 10 10 10 10 9 9 9 8 8 8 7 6 5 4 4
3 2 1 2 2 5 7 2 0 1 4 5 7 4 7 6 7 7 10 11 14 13 12 10 8 8 7 7 6 6 6 7 10 13 16 18 21 22 19 16 17 19 21 20 22 25 24 24 24 24 23 21 20 19 17 15 13 13 12 12 12 12 11 10 10 10 10 8 6 6 7 8 9 10 11 11 10 9 9 10 11 12 11 10 10 9 9 9 8 7 7 8 8 8 6 4 4
3 2 3 3 0 5 9 5 5 5 5 3 7 4 5 5 7 9 10 10 13 13 11 9 9 7 7 7 6 6 5 5 8 11 14 18 21 22 21 20 20 22 24 23 24 27 26 26 25 25 24 21 19 17 15 13 12 11 11 11 11 11 11 9 9 9 8 6 5 5 6 7 8 9 10 11 10 9 9 10 11 11 10 9 10 10 9 9 8 7 8 8 9 9 7 5 3
3 2 2 4 2 3 7 5 6 8 4 1 4 4 3 4 7 8 9 9 9 11 10 9 9 7 7 7 6 5 4 4 5 8 13 18 22 24 24 25 27 28 27 25 27 30 28 27 26 25 23 21 18 16 14 13 11 11 11 11 10 10 9 8 7 6 5 4 3 2 3 5 6 7 8 9 9 9 9 9 9 9 8 8 9 10 10 10 9 8 9 9 9 8 7 5 3
4 2 1 4 3 2 4 6 6 4 5 4 4 5 2 2 6 8 8 9 10 11 11 9 8 7 6 5 5 6 5 5 6 8 13 19 22 23 23 25 27 27 26 26 27 30 30 27 25 23 21 19 16 15 15 14 13 12 11 10 8 8 8 7 6 5 5 4 2 2 2 2 2 3 4 6 7 8 9 9 9 9 9 9 9 10 11 11 9 8 9 9 8 8 7 6 5
2 2 1 3 3 2 4 5 5 3 3 5 4 3 2 3 5 8 6 7 9 8 8 8 8 7 6 5 6 7 7 7 7 10 15 19 22 22 23 23 23 22 23 24 22 25 29 26 24 22 20 18 17 15 15 15 14 13 12 9 8 8 8 8 8 7 7 7 5 5 4 4 4 3 4 5 5 6 6 7 8 8 9 9 9 10 12 11 9 8 9 9 8 8 7 6 5
5 4 3 3 4 4 6 6 6 3 2 4 5 4 3 4 6 6 6 6 5 3 5 7 7 7 7 6 7 8 9 9 9 13 17 19 21 23 24 23 23 22 21 20 18 21 28 25 23 22 20 20 19 17 17 17 16 15 13 11 10 10 10 11 10 10 9 7 6 6 5 6 5 5 4 4 5 4 4 4 5 5 6 7 8 9 10 9 7 7 8 8 8 8 8 7 6
4 3 3 5 4 5 6 6 6 1 4 1 2 6 6 8 10 9 8 6 5 6 6 7 8 7 8 9 8 9 9 8 10 15 19 20 20 23 23 22 25 24 19 18 16 18 26 27 25 24 22 21 21 21 21 20 19 17 14 12 13 13 13 13 13 11 10 8 7 6 5 5 5 5 4 5 6 5 5 4 3 4 4 4 5 6 6 6 6 6 6 6 6 7 9 10 8
3 3 3 4 4 5 6 4 7 3 5 3 1 8 3 3 7 9 10 9 7 10 11 10 10 9 8 8 8 8 6 4 7 12 16 19 20 21 20 19 22 22 19 20 18 18 24 26 26 26 24 23 23 24 23 21 20 17 15 14 15 15 14 13 13 11 10 9 8 6 5 4 4 3 3 5 7 7 6 5 3 3 3 3 3 3 4 4 4 5 5 5 6 7 7 8 8
2 1 2 2 3 4 6 5 7 6 5 1 1 6 1 4 2 5 10 12 10 11 13 12 12 11 9 9 9 8 6 5 7 9 12 17 19 20 19 19 21 21 20 21 20 21 24 26 27 27 26 25 25 24 23 20 18 16 15 16 18 16 14 13 13 12 10 8 8 7 6 4 3 2 3 6 9 8 7 6 5 5 5 5 3 2 2 3 3 2 3 5 7 8 6 5 7
2 2 2 2 3 1 3 6 7 6 3 2 4 5 3 6 4 3 5 3 3 5 8 8 9 11 11 11 10 11 11 10 10 10 10 13 16 19 19 21 23 21 22 21 21 24 27 28 29 28 27 26 26 24 21 19 18 16 15 17 19 18 16 15 14 12 10 8 8 7 6 5 3 3 5 7 10 9 7 6 6 6 7 7 5 4 4 3 2 2 2 3 5 7 7 5 6
3 3 4 2 4 2 4 5 5 5 5 4 6 6 4 5 2 3 4 4 3 4 5 5 5 7 7 7 8 10 11 11 12 12 11 11 14 17 20 22 23 22 22 23 24 26 28 30 29 27 27 26 24 23 20 19 19 18 18 19 19 18 18 16 15 13 10 9 8 7 7 7 6 6 6 7 9 9 8 6 5 5 6 7 6 5 5 5 4 3 2 2 2 5 6 5 5
4 4 6 7 5 4 4 3 4 4 5 4 5 5 3 5 2 4 2 1 2 3 5 6 5 5 5 6 7 8 8 9 10 10 10 9 12 15 18 20 21 20 22 24 27 29 30 30 29 27 26 25 24 22 21 20 19 19 19 19 18 18 17 15 14 13 11 10 9 8 9 8 7 8 8 7 8 9 8 7 5 5 6 7 7 6 6 5 5 5 4 3 2 4 5 6 6
2 4 6 6 6 3 2 4 5 3 1 3 4 5 3 5 2 4 3 5 5 3 5 5 5 6 5 6 6 7 7 8 8 7 7 8 12 14 16 19 21 21 24 26 28 30 31 31 29 28 26 25 24 22 20 21 20 19 19 18 17 16 15 12 12 12 12 11 11 10 10 9 7 7 8 8 8 9 9 8 7 7 6 6 6 5 5 5 5 6 6 5 4 3 4 6 7
3 5 5 7 5 4 3 5 4 1 2 3 5 4 2 3 3 5 2 4 5 5 7 6 6 7 5 6 7 7 8 8 8 7 8 9 13 15 16 20 23 24 26 27 28 31 31 31 29 28 27 26 24 21 21 22 22 21 20 18 17 15 13 13 13 12 12 12 12 11 10 8 7 5 6 6 8 10 9 8 7 6 5 5 5 5 5 5 5 5 6 6 7 6 3 3 5
6 6 7 5 5 6 5 6 3 2 2 2 7 4 2 3 4 4 2 4 4 7 9 9 9 8 7 7 7 7 7 7 8 8 9 10 13 17 19 21 23 26 28 30 30 30 30 30 29 29 27 25 23 21 21 22 23 23 22 20 18 15 14 15 15 13 12 12 11 10 8 7 6 5 5 6 8 9 8 7 6 5 5 5 5 5 6 6 6 5 6 6 6 7 6 6 6
4 5 5 4 4 4 4 5 4 3 3 2 7 3 2 3 5 4 3 3 1 6 8 8 8 7 7 7 7 8 7 6 7 7 7 10 15 19 19 21 23 25 28 29 30 30 30 29 27 27 26 24 23 21 21 22 24 25 24 22 20 17 16 17 17 14 12 11 10 10 9 8 7 7 8 8 8 7 6 5 5 6 7 6 6 5 5 6 6 6 7 7 7 7 8 7 8
3 5 5 5 5 4 4 3 4 5 2 5 7 2 3 1 4 2 1 1 3 6 7 6 7 6 6 7 8 8 8 7 6 5 5 8 12 15 17 20 22 24 27 29 27 25 23 21 19 20 21 22 22 20 21 23 26 26 25 23 20 19 19 20 18 16 13 12 11 11 9 8 9 9 9 9 9 7 6 5 4 7 9 9 8 6 5 5 5 6 7 7 8 8 7 6 6
5 5 4 3 2 4 4 4 4 4 2 6 6 2 4 2 4 4 3 5 5 6 7 7 9 10 8 7 7 7 6 6 5 4 5 6 7 10 14 17 20 22 21 15 12 16 19 18 15 16 18 20 20 20 22 24 26 26 24 22 21 20 21 21 20 18 15 14 13 12 11 10 10 10 10 10 9 8 6 5 5 7 8 9 9 9 7 6 5 5 6 6 6 6 5 5 6
5 5 5 3 1 3 1 3 2 2 3 4 3 1 2 3 5 5 6 7 6 5 6 5 6 8 9 8 7 6 6 6 5 5 5 5 5 8 11 16 18 13 12 22 28 24 20 20 17 15 16 17 18 20 23 25 26 25 24 23 21 21 22 21 20 19 17 15 14 13 13 12 12 11 11 11 11 9 7 6 6 6 7 7 8 9 9 8 7 6 6 6 6 6 6 6 7
4 4 4 4 2 2 1 3 1 1 2 3 4 1 1 2 3 4 7 6 4 4 1 3 4 3 5 6 5 5 5 5 5 4 5 5 6 8 12 16 13 12 23 24 20 20 26 28 24 20 18 18 19 21 24 25 26 26 24 23 22 22 22 21 19 19 18 16 15 15 14 13 13 13 12 12 12 10 8 7 7 6 6 6 6 6 8 9 8 7 7 6 6 7 7 7 8
3 4 5 5 4 4 3 3 2 2 1 2 4 0 3 2 2 4 6 5 3 7 6 7 8 7 7 8 7 7 6 6 5 3 1 1 3 7 12 11 9 19 20 14 14 21 28 32 31 29 27 25 24 26 27 28 27 26 24 23 22 23 22 21 19 19 19 18 16 16 15 14 13 12 11 11 11 11 10 9 8 7 6 5 4 5 6 7 7 7 7 7 7 6 6 7 8
2 2 5 3 4 5 2 2 5 3 1 0 2 1 2 2 3 5 5 4 6 8 8 9 8 7 8 9 8 8 7 6 6 5 5 5 5 2 6 5 12 19 20 16 15 18 24 30 33 33 33 31 30 32 32 30 28 25 24 24 24 23 23 22 21 21 20 19 17 17 15 14 14 12 11 11 12 12 11 10 9 8 7 6 5 5 5 5 6 6 7 7 8 6 5 6 7
1 2 3 4 4 7 5 1 1 4 3 1 1 1 2 2 2 6 5 5 7 7 7 9 9 8 9 8 8 8 7 7 6 7 6 6 7 6 3 7 15 19 20 17 15 16 20 27 31 32 31 30 32 32 30 28 27 24 23 24 25 25 24 24 23 23 22 19 18 17 16 15 14 13 12 11 12 11 10 10 8 8 8 8 8 7 6 5 5 5 5 6 7 7 6 6 6
4 2 5 2 2 5 5 2 3 4 2 3 2 1 1 1 1 5 5 4 4 6 6 6 9 8 6 5 8 9 8 6 5 7 7 7 8 9 10 13 17 20 20 17 15 14 17 23 28 31 32 29 26 24 24 26 26 25 24 25 26 26 26 26 25 24 22 20 19 18 17 16 14 13 13 12 11 11 10 9 7 7 8 9 9 8 7 6 5 4 5 5 5 7 7 6 5
4 3 3 4 3 1 1 3 2 2 2 2 3 1 2 2 2 3 2 3 2 4 4 5 6 6 4 4 7 7 7 6 5 6 6 5 7 9 11 15 18 20 20 17 14 13 15 20 25 31 32 28 23 22 25 27 26 25 25 25 27 28 28 28 26 24 22 21 20 19 19 17 15 14 14 13 12 11 10 9 7 6 7 8 10 9 7 7 6 6 5 5 5 5 6 6 5
3 2 3 2 3 4 2 2 3 4 3 2 1 2 1 4 4 5 6 6 5 5 4 4 5 4 3 3 5 5 5 6 6 6 6 4 5 8 12 15 17 20 20 17 14 12 14 19 24 28 28 24 23 26 30 29 25 24 23 23 25 29 30 29 25 23 22 20 19 21 21 19 18 16 15 14 13 12 11 10 9 8 8 9 10 10 9 8 7 6 6 6 5 4 4 4 5
2 3 3 3 2 3 2 1 2 4 4 3 2 0 4 5 3 5 7 7 7 7 6 5 4 5 4 4 5 5 5 6 6 6 6 5 6 10 13 14 15 18 17 15 13 12 14 18 22 24 25 23 22 26 29 27 23 21 20 20 22 27 30 29 26 23 22 19 17 21 23 21 20 20 18 16 15 13 12 12 11 11 10 10 10 11 11 10 8 7 6 6 5 4 4 3 4
4 3 1 1 3 4 3 1 1 2 4 4 5 2 5 5 2 4 6 6 7 8 9 7 5 6 6 4 5 6 6 6 6 6 5 5 7 11 13 14 15 16 17 16 15 14 15 17 19 21 22 23 23 25 26 23 18 18 19 18 19 24 27 27 25 22 20 18 16 21 25 24 24 23 21 20 17 15 14 13 14 14 12 12 11 11 11 11 9 9 8 7 7 6 6 5 5
Wind_Direction
341 60 43 101 128 137 92 78 90 323 92 255 264 236 254 239 238 272 280 270 244 306 289 254 63 81 98 114 140 111 44 66 144 143 200 178 142 150 159 161 159 160 158 157 152 148 151 153 156 154 152 154 154 153 150 148 144 141 136 133 131 130 129 129 131 130 130 133 134 132 129 127 124 122 120 117 117 117 120 120 114 109 111 111 111 110 109 111 112 109 104 106 109 112 115 117 120
271 244 0 76 75 122 183 77 100 323 60 298 272 174 251 296 307 264 260 231 170 201 61 82 76 74 94 117 134 92 39 33 70 115 103 129 134 145 158 159 157 158 155 154 150 146 149 152 154 152 152 154 154 154 152 150 147 143 140 137 135 133 131 130 131 133 132 134 136 135 133 131 128 125 122 121 120 122 125 127 120 110 108 110 111 110 108 107 106 104 102 105 108 115 118 119 122
228 234 323 110 62 60 93 50 93 106 98 240 272 230 261 302 235 261 268 203 164 159 119 89 73 64 84 85 68 62 75 61 87 93 107 128 128 140 151 153 154 154 152 151 150 147 147 150 153 152 153 155 155 155 153 151 149 146 144 141 138 136 134 133 132 134 135 137 139 139 138 136 132 127 124 125 125 126 127 127 121 111 109 111 113 111 111 112 108 104 103 104 107 116 123 122 123
219 222 275 134 58 29 67 52 131 127 160 222 273 258 240 249 227 308 318 196 166 169 139 115 78 4 76 92 84 81 102 105 113 115 115 136 145 147 148 150 151 150 148 147 147 145 146 150 151 152 155 157 157 156 154 153 151 148 146 144 141 139 138 137 136 135 136 139 141 142 142 139 134 129 128 127 127 126 124 123 119 114 114 116 117 115 114 112 110 108 106 106 109 118 126 127 126
135 171 180 88 90 35 94 92 117 132 212 195 220 258 238 251 268 10 353 342 229 225 306 209 102 8 77 85 112 85 96 125 132 117 106 140 152 149 149 151 150 147 144 144 145 143 144 149 150 151 157 160 160 155 153 153 152 150 148 146 145 144 142 141 139 137 137 139 142 143 143 142 137 133 132 130 129 127 127 124 121 120 119 120 123 126 121 111 110 108 107 110 112 117 126 131 131
92 112 65 54 98 168 110 131 176 210 228 164 190 266 266 265 298 342 322 26 316 275 314 293 120 112 82 30 54 45 0 148 127 129 128 142 151 149 150 152 152 148 143 143 144 142 144 149 151 154 159 162 160 155 153 154 153 153 150 149 148 148 146 144 141 139 139 142 143 145 145 144 141 138 135 132 131 131 132 129 128 129 122 122 128 136 130 118 113 101 98 104 108 117 127 132 133
80 98 34 54 39 32 110 183 207 229 243 176 202 275 289 286 293 311 288 76 351 294 345 328 115 106 76 345 82 16 346 184 142 144 144 145 149 149 151 154 153 148 143 143 144 145 147 152 157 157 159 162 161 157 156 156 155 155 153 152 152 152 150 146 143 142 143 144 145 147 148 147 145 142 140 137 137 138 137 133 134 135 129 129 135 142 135 123 112 90 84 94 104 118 130 135 137
69 110 22 92 53 14 108 225 232 215 247 225 232 265 274 278 277 289 283 236 209 255 108 180 85 83 37 24 88 10 33 126 145 142 143 145 149 150 153 154 150 144 142 144 145 148 150 154 160 157 156 159 161 162 160 157 156 155 154 155 155 154 150 147 145 145 146 147 148 148 150 151 149 147 144 143 144 146 143 138 139 141 140 140 141 144 137 123 104 80 76 90 106 121 134 139 142
52 62 93 95 118 22 17 269 266 230 258 265 260 261 260 266 266 257 253 234 188 143 148 231 20 88 111 68 84 18 54 115 135 137 143 146 149 150 153 153 149 143 141 144 145 147 150 153 156 154 154 156 159 162 159 155 155 155 155 156 155 153 150 149 148 148 149 149 150 150 150 151 151 149 147 147 148 151 149 143 144 146 149 148 147 147 141 124 96 79 77 92 113 127 137 140 142
34 30 127 83 106 58 308 273 271 260 259 265 270 270 268 269 259 244 245 225 174 137 135 58 62 106 120 87 69 34 94 127 132 136 146 149 150 151 151 152 149 145 144 146 147 148 148 151 155 154 152 153 157 158 157 154 154 156 156 156 154 152 152 151 149 150 150 150 151 150 151 151 151 150 147 148 150 154 151 146 146 149 152 152 152 151 146 123 97 88 80 98 116 124 132 133 135
35 342 98 77 76 180 257 257 278 275 276 295 287 273 266 274 268 243 218 165 132 120 150 81 83 110 99 83 56 92 134 136 138 144 150 151 151 153 152 150 151 150 149 149 150 150 148 151 156 153 149 150 156 158 156 155 156 156 156 155 152 152 150 149 149 150 149 148 149 149 150 149 149 149 147 148 149 151 147 144 144 147 150 150 153 153 141 120 105 94 89 108 114 113 118 123 126
81 323 68 94 131 197 215 234 284 288 298 308 286 286 292 296 288 203 155 135 125 123 188 137 130 128 89 96 108 122 141 144 149 149 151 152 153 155 153 149 151 153 151 150 150 150 149 152 157 154 150 152 157 158 156 156 157 156 155 153 151 149 147 147 147 147 147 146 147 148 149 149 150 150 148 146 144 145 143 142 142 143 143 144 151 148 134 122 113 102 103 114 113 107 108 113 118
125 165 85 123 184 195 205 177 280 307 310 288 257 293 314 314 278 184 131 118 138 143 178 140 144 126 97 131 105 137 150 157 155 150 152 152 152 153 152 149 149 150 148 147 146 148 150 154 159 156 152 154 158 157 157 158 158 157 155 153 151 149 147 147 148 146 147 147 149 150 150 151 151 149 147 145 145 146 143 142 140 140 138 141 148 145 133 128 121 110 112 116 113 107 104 105 111
158 161 112 177 216 207 215 166 282 323 285 278 273 301 316 320 253 174 114 108 133 156 121 123 134 106 105 144 107 185 165 163 158 152 152 150 150 149 148 147 145 142 143 146 146 148 152 156 159 155 154 157 158 157 159 162 160 158 155 155 152 150 149 149 149 148 149 149 150 151 152 152 150 148 147 147 148 146 143 141 138 138 139 141 146 143 137 136 129 119 122 122 119 117 108 103 105
184 137 97 117 310 274 235 163 212 163 258 289 304 311 322 323 32 37 92 112 13 82 107 105 129 87 154 172 181 190 168 162 159 153 149 146 146 145 147 145 141 142 145 149 150 152 156 159 159 155 157 157 158 159 162 164 161 159 156 155 154 152 151 151 151 151 151 151 152 153 152 150 148 145 143 144 143 142 141 139 139 141 143 146 147 142 138 140 136 127 130 129 128 135 126 109 104
167 99 76 93 252 251 235 188 173 155 264 280 298 327 346 323 29 34 321 122 115 91 79 110 269 49 169 183 174 162 159 159 156 151 145 141 141 141 145 143 141 145 149 152 152 157 160 160 159 157 159 158 159 160 162 165 162 158 156 155 154 153 154 154 155 155 153 154 156 155 154 152 150 144 139 137 135 139 141 141 145 147 147 147 148 144 137 139 138 129 129 133 134 143 142 126 111
85 79 77 244 220 216 218 196 156 165 265 283 316 356 32 329 359 63 2 66 113 101 40 41 333 25 159 171 140 147 151 153 150 146 141 139 140 139 142 143 142 145 149 150 152 159 161 160 160 159 159 158 160 161 164 165 161 158 156 156 155 156 157 155 155 156 157 158 160 160 159 157 153 145 138 137 135 138 145 147 150 151 152 152 151 149 145 140 138 133 131 139 141 145 150 141 124
86 94 139 223 207 209 202 186 171 190 269 294 318 352 36 339 334 61 51 41 78 77 31 35 31 45 89 108 127 140 147 148 146 144 143 144 146 143 145 146 143 144 148 149 153 159 159 159 162 161 159 159 161 164 168 166 162 160 159 159 158 157 158 158 159 161 163 164 165 166 165 162 157 149 144 141 137 141 150 155 155 155 158 159 160 157 153 147 146 147 145 150 151 153 158 150 135
137 126 188 228 203 216 214 201 213 230 266 295 304 322 11 290 249 33 99 51 55 84 40 42 66 73 88 107 124 137 145 146 148 148 146 149 153 151 148 147 147 149 150 148 151 157 157 157 165 167 162 161 163 167 171 169 167 165 165 167 165 163 165 168 169 168 170 171 170 170 170 167 163 156 150 144 144 152 158 161 162 163 163 165 168 164 160 156 157 159 156 161 163 165 166 159 143
170 148 219 246 215 236 249 221 230 236 253 295 303 318 335 279 232 334 124 99 30 122 158 98 104 115 115 116 126 137 144 145 147 147 150 153 154 153 150 149 149 149 146 145 150 159 163 162 173 176 167 165 167 172 175 175 173 173 175 175 174 173 174 177 177 176 176 176 173 174 176 171 166 161 156 156 165 171 169 169 169 171 172 173 173 167 168 172 172 172 172 176 176 179 178 173 158
195 169 205 243 209 251 263 229 235 241 223 263 297 324 320 298 334 76 113 93 338 254 228 182 153 144 133 132 136 141 145 143 144 147 151 151 150 152 153 148 144 144 145 150 160 168 169 171 183 184 174 171 174 177 178 179 177 178 181 181 182 182 181 180 180 185 181 178 177 179 182 175 170 169 167 170 179 181 178 180 178 180 183 180 177 172 176 181 179 176 185 194 189 191 190 193 189
176 226 211 236 214 250 266 244 240 241 218 266 299 314 294 310 25 115 129 145 235 228 230 196 155 146 141 142 144 145 148 144 143 139 121 106 142 150 147 143 143 150 155 161 172 174 171 176 187 186 182 180 182 185 182 183 184 184 188 188 191 191 189 187 186 192 188 184 182 185 188 180 177 181 182 185 191 190 189 194 191 191 193 190 185 181 179 177 178 181 190 201 197 199 201 215 244
207 269 236 242 225 225 269 273 249 216 219 262 262 282 297 356 327 176 152 196 236 225 184 135 131 137 139 140 145 148 148 142 131 118 99 78 44 75 128 139 144 151 155 161 174 175 173 180 188 188 187 187 188 192 190 190 192 193 196 197 201 201 197 195 195 195 194 192 189 191 192 187 184 187 191 199 207 204 200 201 201 203 202 200 199 192 186 176 175 177 182 197 198 203 203 212 249
202 260 263 255 241 234 259 268 261 218 214 243 239 323 309 283 281 50 96 284 286 139 112 111 122 130 134 138 143 142 135 125 110 104 108 110 89 51 86 143 148 152 154 162 174 175 176 185 190 191 192 193 194 196 199 200 200 200 204 206 208 208 208 208 207 201 199 199 199 199 198 197 197 197 200 208 217 215 209 204 205 213 210 208 209 205 200 187 180 167 157 185 194 198 195 201 240
209 233 257 263 258 252 257 263 264 243 230 247 262 291 261 238 220 55 335 333 20 99 110 118 127 128 135 136 134 129 120 113 107 108 114 121 122 119 135 167 159 162 169 171 175 178 182 188 190 193 194 196 198 199 203 206 206 206 210 214 213 212 214 218 223 219 215 211 208 206 205 210 212 211 212 217 224 221 215 210 212 220 219 214 213 215 216 201 196 195 166 190 200 205 204 207 260
217 219 255 275 275 266 264 265 256 242 230 207 180 242 254 239 126 38 303 32 71 105 113 124 131 131 136 128 122 119 118 120 121 127 136 139 142 151 173 180 164 171 190 183 178 182 185 186 188 193 196 199 200 201 206 210 211 211 213 217 218 220 219 222 230 233 232 224 215 212 215 220 222 222 223 226 229 225 220 219 223 226 226 225 224 229 236 229 224 237 264 251 234 239 240 244 290
217 223 263 259 267 270 264 265 251 226 223 197 186 232 263 258 123 225 268 118 115 114 114 129 132 133 132 120 120 121 125 138 142 141 145 154 154 159 176 182 171 177 194 192 186 185 181 180 185 193 198 200 201 203 208 212 215 215 217 218 221 226 225 225 230 234 232 227 220 219 220 218 219 224 229 234 234 229 224 225 229 229 231 239 245 252 257 261 258 264 276 271 265 263 261 271 293
257 272 299 279 285 287 259 265 258 187 220 204 172 227 286 46 143 200 186 142 137 127 126 134 128 130 132 129 131 134 139 148 151 147 153 173 162 161 177 184 179 183 192 193 191 185 177 177 185 193 198 200 201 205 209 213 217 218 219 220 223 228 228 229 231 232 229 226 224 221 220 214 214 222 231 235 234 231 227 228 232 230 234 244 254 260 261 263 262 266 266 260 262 262 262 269 281
286 307 310 297 338 320 256 249 236 166 208 195 148 300 309 253 238 202 157 139 136 130 133 134 129 137 140 142 141 136 144 146 157 160 162 170 163 168 183 185 180 182 183 186 187 184 181 181 187 193 198 200 202 207 210 212 215 216 218 221 226 231 231 231 228 229 226 223 222 218 221 221 222 228 231 230 228 233 233 230 230 229 231 238 247 253 254 256 257 259 252 244 250 254 257 260 262
317 41 139 303 354 325 267 232 225 162 207 179 139 289 275 262 263 191 148 142 136 137 144 140 138 150 151 153 145 136 147 155 169 170 165 166 166 175 184 181 178 175 172 180 189 189 188 187 189 193 196 201 203 207 210 208 208 211 217 222 227 230 228 225 219 217 216 218 220 217 222 228 230 231 229 227 226 230 233 231 227 225 228 232 238 245 248 247 250 253 243 236 242 248 250 244 245
332 351 61 352 357 292 288 298 316 273 244 166 134 240 253 264 254 180 158 153 147 148 152 147 147 158 160 158 148 145 156 174 181 172 167 168 170 177 179 178 178 173 174 182 185 188 189 189 190 190 192 198 200 203 204 201 201 205 213 218 219 221 220 213 207 207 210 214 222 224 227 231 234 233 229 228 228 229 232 233 227 224 228 231 234 238 242 242 244 250 243 236 236 239 239 233 245
1 0 327 333 165 278 299 284 200 216 253 158 140 217 269 259 219 180 166 162 152 150 151 152 154 152 156 161 153 145 155 184 183 176 174 168 169 176 178 180 182 182 186 187 181 183 185 186 188 187 188 193 195 198 197 192 194 198 206 210 208 209 209 202 197 200 204 207 217 231 236 238 239 238 235 232 231 231 230 230 227 225 228 238 241 241 243 243 242 247 246 235 228 230 230 232 253
356 67 256 283 305 306 315 306 230 207 211 208 177 195 269 254 205 176 165 161 149 147 152 155 156 151 156 165 161 150 156 182 181 182 179 168 169 179 183 185 186 189 193 189 183 181 178 179 183 184 185 187 188 191 191 189 188 192 196 198 197 196 193 191 188 188 188 193 211 233 232 235 236 235 236 234 231 227 224 226 227 227 234 242 244 246 251 248 242 243 242 233 224 224 224 222 228
318 14 277 260 260 283 305 305 286 213 179 216 218 191 247 283 179 168 164 160 153 158 164 159 151 152 157 160 165 161 163 187 192 185 180 173 174 181 186 187 189 194 196 193 189 181 173 173 177 181 184 184 183 185 188 187 182 185 189 187 184 178 178 179 171 160 149 148 145 130 144 165 190 208 215 218 219 219 221 226 228 234 244 244 241 245 251 249 245 240 236 232 221 217 216 213 216
233 284 329 291 275 249 265 277 293 294 198 194 191 189 351 26 149 162 161 157 160 168 162 149 144 153 162 166 172 169 173 194 200 187 182 179 177 179 181 181 187 197 199 198 199 183 170 169 174 180 184 184 184 185 183 181 178 179 182 176 168 162 160 160 155 146 139 134 125 116 107 105 122 141 158 175 186 198 211 219 224 235 244 243 241 244 247 248 248 240 234 232 223 214 212 205 203
188 224 196 248 277 270 259 257 271 279 145 165 181 167 136 147 161 160 151 138 133 122 125 137 148 158 171 183 183 175 180 194 194 188 186 181 179 176 173 176 186 199 201 199 203 185 169 168 174 180 185 188 188 183 177 177 177 179 179 170 161 154 149 148 150 147 142 137 128 120 107 104 113 116 122 141 148 148 159 184 205 219 231 236 241 246 246 246 249 247 242 236 228 221 219 213 206
179 229 208 240 259 272 275 273 289 339 101 319 189 139 150 176 180 172 152 131 124 133 148 159 162 169 182 190 189 181 186 189 181 185 187 184 181 175 173 180 188 195 197 191 192 183 169 170 178 181 186 191 188 180 176 177 178 179 180 172 160 151 149 148 146 145 141 135 132 133 129 121 117 113 115 123 127 135 141 148 175 198 213 218 226 242 246 247 253 254 247 235 223 220 224 223 217
181 209 213 262 253 259 277 277 308 11 93 341 45 122 140 193 184 176 153 154 171 169 173 176 171 178 190 191 186 181 184 167 166 185 190 185 181 178 182 187 187 187 184 178 179 177 169 171 179 180 182 185 183 180 178 179 180 179 180 175 164 154 153 153 147 145 142 138 140 144 150 150 139 128 133 133 132 138 136 124 120 139 159 170 187 223 240 244 252 251 243 230 213 207 217 220 212
138 190 178 285 266 282 304 305 323 3 85 357 63 118 233 299 263 209 180 180 189 181 180 177 171 177 189 190 182 175 177 170 176 191 193 189 183 182 185 184 186 188 181 174 175 173 168 172 176 175 175 177 177 178 179 178 176 176 174 171 169 162 158 158 152 148 149 149 146 145 157 160 147 139 147 145 140 135 126 116 105 103 108 119 139 161 182 207 217 222 228 227 214 202 199 197 196
161 196 119 286 284 0 310 309 329 347 46 104 106 91 316 322 353 273 243 213 172 171 178 173 174 183 188 188 181 176 179 179 183 189 194 193 185 182 183 182 184 186 181 177 176 173 170 172 175 174 173 173 173 174 175 172 167 165 161 160 164 161 157 157 155 154 159 158 140 131 141 145 135 138 141 143 142 138 133 125 116 112 106 103 111 120 120 134 149 164 197 210 213 205 195 190 194
256 214 148 209 274 234 231 282 325 340 6 56 80 53 337 339 9 244 290 0 72 140 176 183 197 196 175 172 185 187 186 183 181 186 190 191 189 185 183 182 184 185 184 182 180 177 174 175 178 177 174 173 173 172 172 170 166 163 154 149 151 150 150 156 156 155 158 155 139 126 130 133 128 130 137 143 143 141 138 130 126 131 126 120 125 127 114 102 105 126 148 152 198 209 193 183 190
291 246 190 188 202 224 267 332 23 31 5 0 55 63 301 318 311 218 242 353 139 162 199 192 190 194 161 163 193 195 197 196 187 185 186 186 187 186 183 183 184 186 186 186 185 183 180 180 180 179 176 174 174 173 174 175 173 170 163 156 152 149 150 157 156 150 145 144 141 138 138 137 130 124 125 135 141 140 134 126 123 130 137 137 138 133 124 115 105 103 103 117 169 206 194 178 183
302 250 196 158 138 136 16 33 58 84 303 323 52 111 235 316 306 232 224 204 204 212 223 206 186 199 176 164 192 198 197 200 192 180 173 179 183 184 186 185 184 187 189 191 190 188 186 185 182 179 175 173 173 173 177 181 178 177 175 171 167 164 161 159 154 145 138 136 137 142 142 139 134 125 119 122 132 134 127 121 118 120 130 135 134 127 123 121 107 95 88 97 125 156 191 188 184
241 233 146 124 130 144 123 79 76 171 213 335 11 92 134 319 278 281 288 194 223 236 224 222 210 207 181 160 186 203 200 193 188 180 174 184 188 186 187 186 187 189 190 192 192 190 189 185 181 178 173 173 175 176 180 185 184 182 181 179 177 177 173 160 151 146 141 140 140 141 142 138 136 135 129 124 128 131 123 116 112 115 133 140 138 132 125 121 113 102 95 96 105 107 110 138 151
240 207 143 143 162 154 128 100 85 8 56 335 327 30 93 277 274 309 8 152 226 248 229 223 216 206 182 166 180 194 200 192 189 187 182 185 188 189 189 187 188 190 192 195 194 191 187 182 178 174 172 174 178 182 186 189 189 187 185 183 180 178 171 160 158 156 152 151 148 147 149 146 144 146 149 144 137 132 123 114 102 99 126 140 139 133 125 119 110 101 101 106 108 103 94 89 93
232 161 121 74 73 87 86 101 104 35 58 228 285 347 102 271 292 329 19 87 225 262 255 238 222 210 181 167 172 180 184 188 196 194 185 187 191 192 189 186 190 194 196 194 193 190 184 177 173 171 172 177 183 189 192 192 193 191 188 186 182 175 165 160 164 166 165 166 161 155 153 152 152 150 150 153 150 143 132 120 101 91 104 118 127 131 129 120 110 103 102 108 113 109 103 92 82
125 104 81 50 37 35 39 57 82 66 16 248 261 284 108 250 290 299 334 319 264 257 274 257 215 199 181 172 171 177 179 179 187 180 172 186 191 189 187 189 192 195 199 199 197 188 169 156 158 162 170 182 189 197 200 196 195 193 191 189 184 175 168 165 169 173 177 180 173 163 158 156 159 159 158 158 155 152 144 128 109 97 96 97 98 101 106 105 102 110 112 113 117 114 109 99 86
93 87 79 91 358 13 26 355 41 85 250 255 258 295 86 134 267 279 278 291 281 243 246 238 199 179 175 176 171 171 166 160 158 156 165 171 172 181 186 190 196 199 200 185 138 110 112 126 146 163 175 187 198 205 203 198 195 194 194 192 187 180 175 174 176 178 182 184 178 171 170 168 167 166 167 166 161 158 152 137 122 110 100 92 86 83 82 83 87 105 119 120 115 109 106 103 100
82 88 76 96 4 3 0 308 356 151 228 251 255 267 110 196 248 286 309 313 310 267 233 223 200 178 168 166 163 153 145 144 142 152 173 171 173 186 187 194 202 189 121 92 85 92 121 146 161 175 180 188 203 207 200 196 196 197 197 194 190 185 182 181 181 182 183 184 183 181 181 181 177 172 171 171 169 169 166 153 139 125 109 95 85 79 74 71 75 90 105 113 106 96 99 106 104
124 129 114 122 103 69 249 269 301 230 241 261 267 229 180 276 275 301 316 311 323 339 18 107 88 107 123 119 115 107 105 113 122 148 177 193 200 194 193 202 194 117 92 94 107 134 153 159 169 184 187 188 200 201 196 197 199 199 198 195 193 189 185 185 187 188 185 185 191 192 192 194 191 185 179 176 173 172 172 163 152 141 126 110 94 85 77 71 72 85 96 104 104 96 97 101 99
170 166 132 140 153 143 203 223 183 210 234 269 287 255 150 203 257 284 297 304 37 50 47 71 79 83 87 81 77 81 74 70 73 76 93 267 244 213 209 204 138 108 113 128 145 156 163 166 172 184 189 193 200 198 195 197 198 197 197 195 195 194 191 189 192 195 190 188 196 200 201 203 202 196 190 185 177 172 169 164 161 156 146 139 125 104 89 74 68 80 93 98 101 106 105 97 92
251 153 105 140 185 146 129 174 170 174 143 305 290 218 194 218 273 298 307 340 41 62 60 61 65 73 88 86 78 76 68 65 63 47 24 2 355 294 236 183 116 120 135 148 160 172 179 176 177 186 189 193 200 200 196 195 194 195 198 197 197 196 194 193 196 199 196 193 199 207 208 208 207 204 201 196 185 176 169 162 164 169 169 169 163 144 120 94 74 77 93 96 96 105 117 106 96
213 129 150 213 180 122 107 139 81 79 109 253 256 162 311 336 315 322 348 17 24 36 58 73 68 57 68 81 84 78 67 63 68 67 44 6 15 22 38 120 132 137 142 156 175 187 188 182 184 189 190 194 200 199 195 192 191 194 199 199 198 198 199 198 199 201 199 197 203 211 214 212 212 210 207 201 193 186 180 172 169 174 182 186 182 170 153 130 101 88 97 100 98 103 117 121 109
121 180 195 182 80 95 104 107 18 47 135 267 335 132 256 99 191 316 353 38 29 17 30 72 86 84 89 105 106 104 105 104 87 77 65 24 19 31 59 108 141 147 147 160 173 183 188 186 187 190 192 196 195 190 193 195 194 195 197 198 199 202 204 204 203 203 200 199 206 213 216 216 215 214 210 206 201 197 193 191 189 185 189 197 198 188 172 158 141 122 110 104 106 107 114 128 126
123 188 179 98 100 146 90 119 133 102 169 272 347 346 226 180 207 256 237 190 135 62 39 53 77 97 130 128 110 112 121 118 94 81 78 48 32 37 67 107 139 147 148 156 163 173 181 181 188 193 194 194 187 186 197 203 201 197 196 198 201 206 208 207 206 204 201 200 207 213 216 217 216 215 213 210 208 205 202 204 207 207 202 202 206 206 195 183 171 160 145 129 124 118 114 124 128
15 39 23 46 128 155 160 144 148 143 159 210 338 4 260 224 217 195 202 210 167 122 93 78 80 84 88 91 94 100 108 107 102 100 100 87 68 63 78 105 135 149 154 162 169 181 184 179 184 190 192 192 191 195 201 204 203 200 197 199 205 208 210 209 207 206 204 203 209 215 218 219 219 218 217 215 214 215 212 211 212 214 213 209 210 213 214 209 198 190 177 157 148 139 129 128 126
6 37 11 352 59 110 141 86 87 130 138 165 155 58 265 254 212 177 196 199 167 147 132 122 126 121 109 104 108 110 104 103 106 104 102 97 82 77 83 99 128 149 160 167 169 176 179 176 179 186 192 191 190 197 202 202 202 205 205 205 211 212 210 210 208 207 207 206 213 223 223 223 224 223 222 220 218 220 220 221 220 218 217 217 218 219 219 220 216 212 209 195 183 176 170 166 155
134 107 71 168 134 120 123 111 310 108 125 161 154 161 262 261 197 181 194 186 174 160 146 145 160 153 143 140 133 128 119 115 118 112 108 105 91 89 95 104 120 139 157 167 169 170 171 174 179 186 192 191 190 194 198 198 199 207 210 211 216 215 212 212 208 205 210 213 223 232 231 230 231 230 229 226 223 223 227 233 235 232 231 229 227 228 226 226 226 224 225 224 220 214 207 205 204
Height
761 762 761 762 761 761 763 764 776 780 782 788 784 782 770 760 760 757 755 751 752 747 740 739 735 735 740 747 754 756 757 757 761 770 772 761 756 757 757 759 761 764 766 768 771 773 775 778 779 780 782 783 784 784 785 785 786 786 786 787 787 788 788 789 790 792 793 795 796 797 798 799 800 800 800 801 802 804 805 806 807 808 808 808 809 810 810 811 811 811 811 812 812 813 813 813 813
761 762 761 761 760 762 766 767 782 789 788 790 783 780 767 760 761 756 753 751 751 745 738 738 736 738 742 745 748 753 757 758 756 757 758 756 757 759 759 760 761 764 766 768 770 772 776 779 781 783 784 785 785 786 786 786 787 787 787 788 788 789 789 790 791 793 794 796 797 798 799 799 801 801 801 802 804 805 806 807 808 809 809 810 810 811 811 812 812 812 813 813 814 814 815 815 815
761 762 761 761 761 762 768 770 784 794 792 788 779 773 765 760 758 754 750 746 745 741 739 739 739 743 744 748 748 754 762 758 755 755 756 758 758 761 762 762 763 765 766 768 770 772 775 778 781 784 785 787 787 787 787 788 788 788 788 789 789 790 790 791 792 794 795 796 797 798 799 800 801 802 803 804 805 806 807 808 808 809 810 811 811 812 812 813 813 814 814 814 815 815 816 816 816
760 761 761 760 763 765 771 776 784 791 790 789 779 765 760 756 753 752 747 743 742 740 741 742 745 745 745 753 752 755 762 758 756 755 757 759 759 761 761 762 764 765 767 769 771 772 774 777 780 783 786 788 788 788 788 789 789 789 789 790 791 791 791 792 793 794 796 797 798 799 800 801 801 802 803 804 806 807 808 809 809 810 811 812 812 813 813 814 814 815 815 815 816 816 817 817 817
760 760 760 759 766 768 773 781 787 789 783 782 773 758 756 752 750 752 747 745 743 742 744 744 748 746 746 753 753 758 762 758 757 755 756 758 759 760 761 762 763 765 768 770 772 774 775 776 778 781 786 788 789 789 789 790 790 790 790 791 792 792 793 793 794 795 797 798 799 800 801 802 802 803 804 805 807 808 809 809 810 811 812 812 813 814 814 814 815 815 816 816 817 817 818 818 818
759 759 760 759 765 767 775 785 787 785 773 771 767 756 754 750 750 751 748 747 744 743 744 745 747 747 753 755 753 758 759 758 757 755 756 758 760 761 761 762 763 765 768 771 773 775 776 777 778 780 785 788 790 790 790 790 791 791 791 792 793 793 794 794 795 796 798 799 800 801 802 803 803 803 805 806 807 808 809 810 811 812 812 813 813 814 814 815 815 816 816 817 817 818 819 819 819
759 760 762 764 768 769 780 786 782 781 770 766 766 758 754 749 750 749 748 749 746 745 745 747 743 746 760 758 757 758 755 756 755 756 757 758 761 762 762 763 763 766 769 772 774 776 776 777 778 780 784 788 790 790 791 791 792 792 792 793 793 794 794 795 796 797 798 799 800 802 803 804 804 804 805 807 808 809 810 810 811 812 813 813 814 815 815 816 816 816 817 817 818 818 819 820 820
758 762 765 768 775 777 783 785 780 780 770 763 763 758 754 748 748 749 749 749 749 748 748 748 741 750 764 759 762 761 755 756 755 757 758 759 761 762 764 764 765 767 770 773 775 778 777 777 779 781 784 788 790 791 792 792 793 793 794 794 795 795 796 797 797 798 799 800 801 803 804 804 805 806 807 808 809 810 810 811 812 813 814 814 815 815 816 816 816 817 817 818 818 819 820 820 821
758 763 767 771 778 782 784 782 778 777 769 762 759 755 750 746 746 749 748 748 748 750 751 748 742 754 765 762 765 762 757 758 756 759 760 761 763 764 766 766 767 768 771 773 775 778 779 780 781 783 785 789 791 792 793 794 794 794 795 795 796 796 797 798 798 799 800 801 803 804 805 805 806 806 808 809 810 811 811 812 813 814 814 815 816 816 816 817 817 817 817 818 818 819 820 821 821
761 764 767 774 779 785 786 781 778 774 766 760 757 751 747 743 743 745 745 747 745 749 752 747 747 757 764 766 767 763 762 760 758 761 762 763 764 765 768 768 768 768 770 773 775 778 779 782 784 786 787 789 792 793 794 794 795 795 795 796 797 797 798 799 799 800 801 803 804 805 805 806 807 808 809 810 811 811 812 813 813 814 815 816 816 817 817 817 818 817 818 818 819 819 820 821 822
766 766 767 776 782 786 784 779 778 771 763 760 755 745 742 739 741 742 742 746 745 750 751 748 756 761 763 768 768 765 763 762 760 761 762 763 765 766 768 769 770 770 771 772 775 778 779 782 786 788 788 791 793 794 795 795 795 795 796 797 797 799 799 800 801 802 803 804 805 805 806 807 808 809 810 811 811 812 813 813 814 815 815 816 817 818 818 818 818 818 818 818 819 820 821 822 823
768 770 769 778 783 783 780 780 777 769 764 761 753 741 738 738 739 740 739 744 746 750 748 746 755 758 765 771 767 765 764 765 763 762 764 764 765 766 768 770 772 773 773 773 775 777 779 784 788 789 790 791 794 795 795 795 796 796 797 797 798 799 800 801 802 803 804 805 806 806 807 808 809 810 811 812 812 813 814 814 814 815 816 817 817 818 818 818 818 818 819 819 819 820 821 822 823
768 771 771 777 782 780 777 781 776 772 767 759 753 742 738 737 736 737 738 743 745 748 746 743 747 752 767 771 765 766 764 765 765 765 766 765 766 767 769 771 773 775 775 775 776 778 781 785 788 790 791 792 795 795 796 796 796 796 797 798 799 800 801 802 803 804 805 806 807 807 808 809 810 811 812 813 813 814 815 815 815 816 817 817 818 818 819 818 819 819 819 819 820 821 822 822 823
765 768 769 775 782 778 775 778 774 775 769 756 751 743 739 737 735 736 737 745 747 746 744 741 742 750 766 771 768 767 764 765 765 766 767 767 768 769 771 773 775 777 779 779 779 781 784 787 790 790 792 793 795 796 796 797 797 798 798 799 800 801 802 803 804 805 806 807 808 808 810 810 811 812 813 814 814 815 816 816 817 817 817 818 818 818 819 819 819 819 820 820 820 821 822 823 824
763 765 768 775 780 777 775 775 772 775 768 754 749 744 742 737 734 737 736 744 748 742 741 742 742 749 760 765 765 762 761 763 764 767 768 769 770 771 772 774 776 778 780 782 782 784 787 789 791 791 792 794 795 796 797 798 799 799 800 800 801 802 803 804 805 806 807 808 808 809 810 811 812 813 814 815 815 816 816 817 817 818 818 818 818 819 819 819 819 820 820 821 821 821 822 823 824
761 764 770 777 779 778 777 773 771 774 766 753 749 746 746 739 735 740 736 738 746 743 743 747 745 746 752 753 751 752 758 762 764 767 768 770 771 772 774 775 777 779 781 783 784 787 789 791 792 793 793 795 796 797 798 799 801 801 801 802 802 803 804 805 805 806 807 808 809 810 811 812 813 814 815 816 816 817 817 818 818 819 819 819 819 819 819 820 820 820 821 821 821 822 822 823 824
760 765 775 780 780 779 776 771 770 771 762 752 748 747 749 745 738 739 736 736 745 748 748 750 747 744 747 747 746 750 758 762 764 767 768 771 772 774 775 776 778 780 783 784 786 789 791 793 793 794 794 795 797 798 799 800 802 802 803 803 803 804 805 806 806 807 808 809 810 811 812 813 813 814 816 817 817 818 818 819 819 819 819 819 819 819 820 820 821 821 821 821 822 822 822 823 824
762 771 778 780 779 776 769 765 764 763 759 752 749 749 751 748 743 739 740 745 748 751 752 752 750 747 748 748 749 754 759 761 764 766 768 770 771 773 775 777 779 781 784 785 788 790 792 794 795 796 795 796 798 799 799 800 802 803 804 804 804 805 806 806 807 808 809 810 811 812 813 814 815 815 817 818 818 819 819 819 819 819 819 820 820 820 821 821 821 821 821 821 822 822 823 823 824
764 772 778 776 773 768 761 759 758 758 756 752 750 750 750 749 745 740 745 754 752 753 757 756 756 755 753 753 755 759 760 761 764 766 768 769 771 772 773 776 778 780 782 784 787 790 792 795 798 798 797 798 799 799 800 801 803 804 804 805 805 805 806 807 807 809 810 811 812 813 814 814 816 816 818 818 819 819 819 819 819 820 820 820 820 821 821 821 821 821 821 822 822 823 823 824 824
762 768 774 770 764 762 758 756 755 753 753 752 750 748 748 746 742 740 747 755 753 753 756 755 759 760 758 759 759 762 763 763 764 766 768 769 772 773 774 775 776 778 780 782 785 788 790 793 797 799 798 798 799 800 800 801 803 804 805 805 805 806 806 807 808 810 811 812 812 813 814 815 816 817 818 818 818 818 818 819 819 819 820 820 821 821 821 821 821 821 822 822 823 823 823 824 824
762 764 768 763 758 760 754 752 752 750 752 752 750 749 748 742 739 741 746 755 757 753 749 747 754 758 759 761 762 763 764 764 764 766 768 770 772 774 775 776 778 781 781 783 785 786 787 789 794 797 797 798 799 799 800 801 803 804 805 805 806 806 807 809 810 810 811 812 813 814 815 816 817 817 818 818 817 817 817 818 819 819 820 820 821 821 821 821 821 821 822 822 823 823 823 824 824
762 762 760 757 757 759 751 748 750 749 751 751 750 750 747 741 740 742 745 753 754 748 744 743 748 752 755 758 760 763 763 764 765 768 772 776 777 776 776 777 779 782 782 784 785 785 785 788 792 796 797 797 798 799 799 801 802 804 805 805 806 807 809 810 810 811 812 813 813 814 815 816 817 817 818 818 817 817 818 818 819 819 819 820 820 820 820 821 821 821 822 822 823 823 823 824 824
763 761 756 754 756 757 750 747 748 748 750 750 749 747 743 743 744 744 745 747 744 741 740 744 749 751 753 756 759 762 764 765 767 769 773 778 784 784 782 782 781 782 782 783 786 785 785 788 792 793 795 796 797 798 799 800 802 804 805 806 807 808 809 810 811 812 813 814 814 815 815 816 817 817 817 817 817 817 818 818 818 819 820 820 820 820 820 821 821 821 822 822 823 823 823 824 824
762 761 755 753 753 753 749 746 747 748 749 748 747 746 745 746 746 745 746 745 742 740 740 745 750 752 755 758 760 763 765 766 767 771 774 777 783 787 789 789 787 786 783 781 785 787 786 788 790 791 792 794 796 797 798 800 802 804 805 806 807 808 809 810 812 813 814 814 815 815 816 816 817 817 817 817 817 817 818 818 819 819 820 821 821 821 821 821 822 822 822 822 823 823 824 824 824
760 759 755 752 751 749 746 746 746 747 748 746 748 749 746 744 744 746 748 747 745 743 742 747 751 754 758 760 763 765 766 767 769 772 776 777 780 786 791 792 791 790 786 781 782 785 785 787 788 789 791 792 795 797 798 800 802 804 805 806 807 808 809 811 812 813 814 815 815 816 816 816 816 817 817 817 817 818 819 819 820 820 821 822 821 821 822 822 822 822 823 823 823 824 824 825 825
757 755 753 752 751 747 745 746 745 746 746 745 749 750 744 741 745 750 750 748 748 746 746 749 752 756 760 763 766 767 767 768 769 771 774 776 776 780 787 790 789 789 788 784 781 782 783 784 786 787 790 792 795 797 799 800 802 803 804 805 807 808 809 811 813 814 814 815 815 816 816 816 816 817 817 817 817 818 819 819 819 820 821 822 822 822 822 822 823 823 823 824 824 824 825 825 825
753 753 753 751 749 746 745 745 743 745 744 742 746 746 742 742 747 753 751 747 748 750 752 753 754 758 762 765 767 768 769 768 768 770 772 774 772 772 779 784 784 784 785 784 782 782 782 782 784 787 790 792 795 797 799 800 802 803 804 806 807 808 810 811 813 814 814 814 815 815 815 816 816 817 817 817 817 818 818 819 819 820 821 822 822 823 823 823 823 824 824 824 824 825 826 826 826
750 751 752 749 748 746 744 743 742 744 742 739 741 743 742 745 748 749 749 747 749 751 755 757 758 761 763 765 767 768 769 769 769 769 771 773 773 772 777 781 782 782 782 783 784 784 784 783 784 787 790 793 795 797 798 800 802 803 804 806 807 808 810 812 813 813 813 814 814 814 814 815 816 816 817 817 817 818 818 819 819 820 820 821 822 822 823 823 824 824 824 824 825 825 826 826 826
748 750 753 750 747 746 741 740 741 741 741 736 738 746 747 747 747 746 746 747 750 753 756 759 761 762 763 764 766 768 769 769 770 770 770 772 773 775 778 780 781 781 782 784 785 785 785 784 786 788 791 793 795 797 799 801 802 803 805 806 807 809 811 812 813 813 813 813 813 813 814 814 815 816 816 817 817 817 818 818 819 819 820 820 821 822 823 823 824 824 824 825 825 825 825 826 826
749 750 754 754 753 748 741 741 740 740 740 733 739 756 753 746 747 746 745 747 751 756 758 760 762 762 763 765 767 769 769 769 769 770 771 772 774 775 778 781 782 782 783 786 785 786 787 786 787 790 792 794 795 798 799 801 803 804 805 806 808 809 811 812 813 813 813 812 812 813 813 814 815 816 816 816 817 817 817 818 818 818 819 820 820 821 822 823 823 824 824 824 824 825 825 826 826
752 753 756 762 764 752 740 740 741 741 740 731 738 758 754 745 748 747 745 747 750 756 758 759 761 762 763 765 767 769 770 769 769 770 772 773 774 776 779 782 783 785 785 786 786 787 788 788 789 790 792 794 796 798 800 802 803 804 805 807 808 810 811 812 812 812 812 812 812 812 813 814 814 815 815 816 816 817 817 817 818 818 819 820 820 821 822 822 823 823 824 824 824 824 825 825 826
758 760 761 765 766 756 743 739 740 740 738 733 739 755 754 746 747 746 745 748 750 754 758 759 760 762 764 766 768 770 771 771 771 772 773 773 774 777 780 781 783 785 785 786 787 788 788 789 790 791 793 795 797 799 801 802 803 805 806 808 809 810 811 811 812 812 812 812 812 812 813 813 814 814 814 815 816 816 817 817 818 818 819 820 820 820 821 822 822 823 823 823 824 824 825 825 826
763 766 765 763 763 762 752 740 737 737 737 737 740 749 750 745 745 746 746 749 752 756 758 760 761 763 764 766 768 771 772 772 773 774 773 772 774 776 779 779 780 782 783 786 788 787 787 789 790 792 794 795 797 799 801 803 804 806 807 808 809 810 810 811 811 811 811 812 812 812 813 813 813 814 814 814 815 816 817 818 818 818 819 820 820 820 820 821 822 822 822 823 823 824 824 824 825
767 768 766 763 763 765 760 745 737 736 739 741 740 743 745 744 747 748 747 749 753 756 758 760 762 764 765 767 769 771 772 773 772 773 773 772 773 776 778 779 780 782 784 786 788 787 785 787 790 792 794 796 798 800 802 804 805 806 807 808 809 810 810 810 811 811 811 812 812 812 813 813 813 814 814 814 815 816 817 818 818 818 819 819 819 819 820 820 821 821 821 822 823 823 824 824 825
766 768 766 765 764 765 763 751 738 736 741 743 743 747 749 750 750 750 749 751 754 757 758 760 763 765 766 768 769 771 772 772 771 771 773 774 774 776 777 779 781 785 787 786 788 788 785 786 789 791 794 796 798 800 802 804 805 806 807 808 809 809 810 810 811 811 811 812 812 812 813 813 814 814 814 815 815 816 817 818 818 819 819 819 819 819 819 819 820 821 821 821 822 823 823 824 824
763 767 767 767 766 762 757 747 738 739 744 745 746 748 750 751 752 752 751 753 756 759 761 763 765 766 766 768 769 770 770 769 769 770 772 774 775 776 777 779 781 785 787 787 789 789 784 785 788 790 793 795 798 800 802 804 805 806 807 808 809 809 810 811 811 812 812 812 812 812 813 813 814 815 815 815 816 817 817 818 818 819 819 819 818 818 818 819 819 820 820 821 821 822 822 823 824
764 765 765 765 765 759 749 741 736 737 743 748 749 746 746 748 749 750 751 754 758 761 764 765 765 766 766 768 769 769 768 767 767 769 771 773 774 775 776 778 779 782 786 787 789 788 784 784 787 789 792 795 797 798 801 803 804 805 807 808 808 809 810 811 811 812 812 812 812 812 812 813 814 815 816 816 817 817 818 818 818 819 819 819 818 818 818 819 819 820 820 820 821 821 822 822 823
763 764 764 764 763 755 745 741 738 736 741 750 750 744 746 749 749 749 749 752 756 757 761 763 764 765 766 768 769 770 769 769 770 770 770 771 772 773 775 776 777 780 783 786 788 788 785 785 788 789 792 794 796 797 799 802 803 804 806 807 808 809 810 810 811 812 812 812 812 811 812 813 815 816 817 817 818 818 818 818 819 819 819 819 819 819 819 819 819 820 820 820 820 821 821 822 822
763 764 763 761 760 755 747 740 739 737 739 747 747 744 748 751 751 751 748 746 749 751 753 757 760 764 766 767 768 769 770 771 772 771 771 771 771 772 773 775 776 778 781 783 785 786 785 786 788 789 791 793 795 797 799 801 803 805 806 807 808 809 810 811 811 812 812 812 812 812 812 813 815 816 817 818 818 819 819 819 819 819 819 819 819 819 819 819 820 820 820 820 820 821 821 821 822
761 761 760 759 758 758 754 745 741 741 743 747 745 745 752 753 752 753 750 748 749 752 753 755 758 761 762 763 764 765 767 769 771 771 771 772 772 772 773 774 776 777 779 781 784 785 785 786 787 789 791 793 796 798 801 802 804 805 806 808 809 809 810 811 812 812 812 812 812 812 812 813 815 816 818 819 819 820 820 820 819 819 820 820 820 820 820 820 820 820 820 820 820 820 821 821 821
759 757 757 756 754 756 756 752 747 744 748 750 747 751 759 758 756 755 753 752 753 756 757 757 759 761 761 762 763 764 764 766 768 769 770 771 771 772 772 774 775 777 778 779 782 784 784 785 787 789 791 794 796 799 801 803 804 805 806 808 809 810 811 812 812 812 813 813 813 813 814 814 815 816 818 819 820 820 820 820 820 820 820 820 821 820 820 820 820 820 820 820 820 820 820 821 821
758 753 750 749 749 752 752 751 749 751 755 755 753 762 769 764 760 759 755 755 756 758 759 759 761 763 762 763 764 765 766 766 766 767 768 769 771 772 773 774 775 777 778 780 781 783 784 785 787 789 792 795 797 800 802 803 805 805 806 807 808 810 811 812 813 813 814 814 815 815 815 815 816 817 818 819 820 821 821 820 820 820 821 821 821 821 821 821 821 820 820 820 820 820 820 821 821
758 751 748 747 749 751 749 747 750 758 763 760 758 765 772 767 760 758 757 756 758 759 760 760 761 762 760 762 765 766 767 767 766 767 768 770 771 772 773 773 775 776 778 780 781 782 783 785 787 790 793 796 798 800 802 804 805 806 807 808 809 810 811 813 814 815 815 816 816 817 817 817 817 817 818 820 820 821 821 820 821 821 821 821 821 822 822 821 821 821 821 821 820 820 821 821 821
755 751 748 747 748 750 750 749 752 759 760 759 760 761 768 769 762 762 761 759 760 760 759 760 759 758 758 760 764 766 766 766 766 767 768 769 770 770 771 773 774 776 778 779 780 781 783 785 788 791 794 797 799 801 803 804 806 807 808 809 810 811 812 814 816 817 817 818 818 818 818 818 818 818 819 820 820 820 820 820 821 821 821 821 822 822 822 822 822 822 822 822 821 821 821 821 821
747 747 747 747 746 749 752 751 755 762 762 763 765 763 770 773 763 763 764 760 763 761 757 758 756 755 756 759 762 765 766 766 766 766 766 768 769 770 771 772 774 775 777 778 779 781 784 787 790 792 795 798 800 802 804 805 806 807 808 809 810 812 813 814 816 818 818 819 819 819 819 819 819 819 820 821 821 820 820 820 821 821 821 821 822 822 822 822 822 822 822 822 822 822 822 822 822
742 744 748 749 751 755 757 756 756 763 769 771 772 768 774 777 764 760 762 761 763 761 755 755 755 754 755 758 761 763 764 765 765 766 767 768 769 770 771 772 773 775 776 777 779 781 784 788 791 794 796 799 801 803 804 805 806 807 808 809 811 812 813 814 816 818 819 819 819 819 819 819 820 821 821 821 821 820 820 820 820 821 821 821 822 822 823 823 823 823 823 823 823 823 823 823 823
741 743 747 748 754 758 761 764 762 768 778 777 774 772 774 778 770 763 765 764 765 763 755 752 752 754 757 758 759 760 761 763 765 767 768 770 770 771 771 772 773 774 775 777 779 781 784 790 795 797 798 800 802 803 804 805 806 807 808 809 811 813 813 814 815 817 819 819 819 819 820 820 821 822 823 822 822 821 820 820 821 821 821 822 822 822 823 823 823 823 823 823 823 823 823 823 823
742 744 748 753 761 763 764 770 769 777 787 779 775 776 774 777 774 766 766 765 766 765 757 752 750 752 756 757 758 759 760 763 766 768 769 770 771 771 772 772 773 774 776 780 781 784 790 796 799 800 800 801 802 804 805 806 807 808 809 810 811 812 813 814 814 816 818 819 819 820 820 821 822 823 823 823 822 821 821 821 821 821 822 822 822 822 823 823 823 824 824 824 824 824 824 824 824
744 747 754 763 775 777 776 781 782 784 785 777 777 778 775 777 773 767 768 766 765 764 757 753 752 751 753 756 758 759 761 763 766 769 770 771 771 771 772 772 773 777 781 784 786 790 796 799 800 801 801 802 804 806 807 808 808 809 810 810 811 813 813 814 815 815 816 818 819 820 821 822 823 823 823 823 822 821 821 821 821 822 822 823 823 823 823 824 824 824 824 825 825 825 825 825 825
745 748 755 766 780 787 790 796 796 790 782 779 780 777 776 779 773 768 770 767 763 761 756 753 753 754 754 756 759 760 762 764 766 769 770 771 771 771 771 771 774 780 784 786 788 790 792 793 795 798 800 802 804 806 807 808 808 808 809 810 812 813 814 814 815 815 816 817 819 821 822 823 823 823 823 823 821 821 820 821 821 822 823 823 824 824 824 825 825 825 825 825 826 826 826 826 826
748 749 751 759 768 776 784 788 787 785 783 781 779 775 779 780 773 769 769 765 761 759 757 755 755 757 757 759 761 763 765 767 769 771 772 773 773 772 772 773 777 782 785 786 787 788 788 787 789 792 795 797 799 802 803 804 805 807 809 810 811 813 814 814 815 815 816 817 819 821 822 823 824 824 824 823 822 820 820 821 821 822 822 823 824 825 825 826 826 826 826 826 826 827 827 827 828
753 754 751 755 755 758 775 786 783 782 782 780 779 779 781 779 770 768 768 765 761 759 758 759 760 761 759 761 765 767 769 770 771 774 776 775 775 774 774 776 779 781 783 785 785 785 785 786 787 789 791 793 794 797 799 801 803 806 808 809 810 812 813 814 815 816 816 817 819 821 823 824 825 825 825 824 822 821 821 821 821 822 822 823 823 824 825 826 826 826 827 827 827 828 828 828 829
752 753 751 754 751 750 769 789 790 786 782 784 786 784 782 780 772 768 768 767 764 763 763 764 767 767 766 766 768 770 773 775 774 774 776 777 777 776 776 778 779 780 782 783 783 783 783 785 789 790 790 791 792 795 799 801 802 804 806 808 809 811 812 813 814 815 816 817 819 821 823 824 825 825 825 824 823 822 822 822 822 823 823 823 823 824 824 825 826 827 827 828 828 828 829 829 830
747 750 746 750 754 753 761 778 790 792 788 787 790 788 785 785 780 773 770 769 768 770 769 768 770 772 773 773 770 770 774 777 776 774 775 778 779 778 777 778 779 779 781 781 782 783 783 785 789 789 790 791 793 799 802 801 800 801 804 806 809 811 812 813 814 815 816 817 819 821 823 824 825 825 825 825 824 823 823 824 824 824 824 824 824 824 824 825 826 827 827 828 829 829 829 830 830
740 743 741 746 756 759 763 774 785 791 795 792 792 794 790 784 780 777 773 771 771 772 772 771 772 773 776 774 771 772 774 774 776 776 776 778 781 781 779 779 780 780 781 782 782 783 784 786 788 789 790 791 794 800 802 800 798 799 801 804 807 810 811 813 814 815 816 817 818 821 822 824 824 825 825 825 825 824 825 826 826 826 826 825 825 825 825 826 826 827 827 828 829 829 830 830 831
737 740 742 746 753 758 764 771 775 780 793 798 793 793 788 778 776 774 773 774 773 773 773 773 774 775 775 774 773 775 776 774 776 777 778 780 783 783 780 780 781 782 783 783 783 784 784 786 788 788 790 791 793 796 797 797 798 799 801 804 807 809 811 813 814 815 816 817 819 820 821 823 824 824 825 825 825 825 826 826 826 826 826 826 826 826 826 826 826 827 827 828 829 829 830 831 831
744 745 749 753 757 761 764 771 776 773 782 792 793 795 787 774 772 772 772 775 773 771 773 774 775 774 775 776 776 776 777 776 777 778 779 781 782 781 780 781 783 784 784 784 784 785 785 786 787 788 790 791 792 794 796 797 798 801 803 805 807 809 811 813 814 815 816 817 819 820 821 822 823 823 824 824 825 825 825 826 825 825 825 826 826 826 826 827 827 828 828 829 829 829 830 830 831
749 751 758 761 760 762 764 775 782 774 776 785 788 792 785 771 771 772 771 773 772 770 771 772 774 774 774 776 776 776 777 777 777 778 779 781 781 781 782 782 784 785 786 786 786 786 786 787 788 789 790 791 792 794 795 797 799 801 803 805 807 809 811 812 813 815 817 818 819 820 821 821 822 822 824 824 825 825 826 826 825 825 825 825 825 826 827 827 827 828 828 829 829 829 830 830 830